Time,TemperatureF,DewpointF,PressureIn,WindDirection,WindDirectionDegrees,WindSpeedMPH,WindSpeedGustMPH,Humidity,HourlyPrecipIn,Conditions,Clouds,dailyrainin,SoftwareType,DateUTC
2013-09-07 00:01:00,74.3,46.3,29.90,West,270,0.0,1.0,37,0.00,,,0.00,WUHU216HW,2013-09-07 06:01:00,
2013-09-07 00:06:00,74.2,46.1,29.90,WSW,248,0.0,0.0,37,0.00,,,0.00,WUHU216HW,2013-09-07 06:06:00,
2013-09-07 00:11:00,73.8,46.5,29.90,WSW,248,2.0,3.0,38,0.00,,,0.00,WUHU216HW,2013-09-07 06:11:00,
2013-09-07 00:16:00,73.8,46.5,29.90,West,270,1.0,3.0,38,0.00,,,0.00,WUHU216HW,2013-09-07 06:16:00,
2013-09-07 00:21:00,73.6,46.4,29.90,WSW,248,0.0,2.0,38,0.00,,,0.00,WUHU216HW,2013-09-07 06:21:00,
2013-09-07 00:26:00,73.4,46.2,29.90,WNW,293,0.0,2.0,38,0.00,,,0.00,WUHU216HW,2013-09-07 06:26:00,
2013-09-07 00:31:00,73.1,46.6,29.90,SSE,158,1.0,1.0,39,0.00,,,0.00,WUHU216HW,2013-09-07 06:31:00,
2013-09-07 00:36:00,72.9,46.4,29.90,SSE,158,0.0,1.0,39,0.00,,,0.00,WUHU216HW,2013-09-07 06:36:00,
2013-09-07 00:41:00,72.5,46.2,29.90,SW,225,0.0,0.0,39,0.00,,,0.00,WUHU216HW,2013-09-07 06:41:00,
2013-09-07 00:46:00,72.2,45.8,29.90,SW,225,1.0,1.0,39,0.00,,,0.00,WUHU216HW,2013-09-07 06:46:00,
2013-09-07 00:51:00,72.0,45.6,29.90,WSW,248,1.0,1.0,39,0.00,,,0.00,WUHU216HW,2013-09-07 06:51:00,
2013-09-07 00:56:00,71.6,46.1,29.90,East,90,0.0,1.0,40,0.00,,,0.00,WUHU216HW,2013-09-07 06:56:00,
2013-09-07 01:01:00,71.5,45.9,29.90,ESE,113,0.0,0.0,40,0.00,,,0.00,WUHU216HW,2013-09-07 07:01:00,
2013-09-07 01:06:00,71.5,46.5,29.90,ESE,113,0.0,0.0,41,0.00,,,0.00,WUHU216HW,2013-09-07 07:06:00,
2013-09-07 01:11:00,71.3,45.7,29.90,South,180,0.0,0.0,40,0.00,,,0.00,WUHU216HW,2013-09-07 07:11:00,
2013-09-07 01:16:00,71.1,46.2,29.90,SE,135,0.0,0.0,41,0.00,,,0.00,WUHU216HW,2013-09-07 07:16:00,
2013-09-07 01:21:00,70.9,46.6,29.90,SE,135,0.0,0.0,42,0.00,,,0.00,WUHU216HW,2013-09-07 07:21:00,
2013-09-07 01:26:00,70.7,45.9,29.90,East,90,0.0,0.0,41,0.00,,,0.00,WUHU216HW,2013-09-07 07:26:00,
2013-09-07 01:31:00,70.6,45.7,29.90,ESE,113,0.0,1.0,41,0.00,,,0.00,WUHU216HW,2013-09-07 07:31:00,
2013-09-07 01:36:00,70.4,46.2,29.90,NNE,23,0.0,1.0,42,0.00,,,0.00,WUHU216HW,2013-09-07 07:36:00,
2013-09-07 01:41:00,70.4,46.2,29.90,NE,45,0.0,1.0,42,0.00,,,0.00,WUHU216HW,2013-09-07 07:41:00,
2013-09-07 01:46:00,70.2,46.0,29.90,NE,45,1.0,1.0,42,0.00,,,0.00,WUHU216HW,2013-09-07 07:46:00,
2013-09-07 01:51:00,70.2,46.5,29.90,East,90,0.0,1.0,43,0.00,,,0.00,WUHU216HW,2013-09-07 07:51:00,
2013-09-07 01:56:00,70.0,46.5,29.91,ESE,113,0.0,1.0,43,0.00,,,0.00,WUHU216HW,2013-09-07 07:56:00,
2013-09-07 02:01:00,69.8,47.4,29.90,ESE,113,0.0,1.0,45,0.00,,,0.00,WUHU216HW,2013-09-07 08:01:00,
2013-09-07 02:06:00,69.7,47.9,29.90,East,90,1.0,2.0,46,0.00,,,0.00,WUHU216HW,2013-09-07 08:06:00,
2013-09-07 02:11:00,69.5,47.1,29.90,SW,225,1.0,2.0,45,0.00,,,0.00,WUHU216HW,2013-09-07 08:11:00,
2013-09-07 02:16:00,69.3,47.0,29.90,ESE,113,0.0,2.0,45,0.00,,,0.00,WUHU216HW,2013-09-07 08:16:00,
2013-09-07 02:21:00,69.1,46.8,29.90,East,90,0.0,1.0,45,0.00,,,0.00,WUHU216HW,2013-09-07 08:21:00,
2013-09-07 02:26:00,68.9,47.3,29.91,NE,45,0.0,0.0,46,0.00,,,0.00,WUHU216HW,2013-09-07 08:26:00,
2013-09-07 02:31:00,68.8,46.4,29.91,WNW,293,0.0,0.0,45,0.00,,,0.00,WUHU216HW,2013-09-07 08:31:00,
2013-09-07 02:36:00,68.6,46.3,29.91,North,0,0.0,0.0,45,0.00,,,0.00,WUHU216HW,2013-09-07 08:36:00,
2013-09-07 02:41:00,68.4,47.4,29.91,ESE,113,0.0,1.0,47,0.00,,,0.00,WUHU216HW,2013-09-07 08:41:00,
2013-09-07 02:46:00,68.4,47.9,29.91,ESE,113,1.0,1.0,48,0.00,,,0.00,WUHU216HW,2013-09-07 08:46:00,
2013-09-07 02:51:00,68.2,47.2,29.90,East,90,0.0,1.0,47,0.00,,,0.00,WUHU216HW,2013-09-07 08:51:00,
2013-09-07 02:56:00,68.2,47.8,29.90,ESE,113,0.0,1.0,48,0.00,,,0.00,WUHU216HW,2013-09-07 08:56:00,
2013-09-07 03:01:00,68.0,47.6,29.90,ENE,68,0.0,1.0,48,0.00,,,0.00,WUHU216HW,2013-09-07 09:01:00,
2013-09-07 03:06:00,68.0,47.6,29.90,NE,45,1.0,1.0,48,0.00,,,0.00,WUHU216HW,2013-09-07 09:06:00,
2013-09-07 03:11:00,68.0,48.2,29.90,SE,135,0.0,1.0,49,0.00,,,0.00,WUHU216HW,2013-09-07 09:11:00,
2013-09-07 03:16:00,67.9,47.4,29.90,East,90,0.0,0.0,48,0.00,,,0.00,WUHU216HW,2013-09-07 09:16:00,
2013-09-07 03:21:00,67.7,47.9,29.90,ENE,68,1.0,1.0,49,0.00,,,0.00,WUHU216HW,2013-09-07 09:21:00,
2013-09-07 03:26:00,67.7,47.3,29.90,WNW,293,0.0,1.0,48,0.00,,,0.00,WUHU216HW,2013-09-07 09:26:00,
2013-09-07 03:31:00,67.5,48.3,29.90,SE,135,0.0,0.0,50,0.00,,,0.00,WUHU216HW,2013-09-07 09:31:00,
2013-09-07 03:36:00,67.3,47.5,29.91,NW,315,0.0,0.0,49,0.00,,,0.00,WUHU216HW,2013-09-07 09:36:00,
2013-09-07 03:41:00,67.3,48.2,29.90,SSW,203,1.0,1.0,50,0.00,,,0.00,WUHU216HW,2013-09-07 09:41:00,
2013-09-07 03:46:00,67.1,47.3,29.91,NW,315,0.0,2.0,49,0.00,,,0.00,WUHU216HW,2013-09-07 09:46:00,
2013-09-07 03:51:00,67.1,48.0,29.91,WSW,248,2.0,2.0,50,0.00,,,0.00,WUHU216HW,2013-09-07 09:51:00,
2013-09-07 03:56:00,67.3,47.5,29.91,SW,225,1.0,3.0,49,0.00,,,0.00,WUHU216HW,2013-09-07 09:56:00,
2013-09-07 04:01:00,67.3,47.0,29.91,NW,315,2.0,3.0,48,0.00,,,0.00,WUHU216HW,2013-09-07 10:01:00,
2013-09-07 04:06:00,67.3,47.0,29.91,SW,225,1.0,3.0,48,0.00,,,0.00,WUHU216HW,2013-09-07 10:06:00,
2013-09-07 04:11:00,67.1,46.2,29.91,NW,315,2.0,3.0,47,0.00,,,0.00,WUHU216HW,2013-09-07 10:11:00,
2013-09-07 04:16:00,67.0,46.0,29.91,NW,315,1.0,2.0,47,0.00,,,0.00,WUHU216HW,2013-09-07 10:16:00,
2013-09-07 04:21:00,67.0,46.0,29.91,NW,315,0.0,1.0,47,0.00,,,0.00,WUHU216HW,2013-09-07 10:21:00,
2013-09-07 04:26:00,67.0,46.0,29.91,NNE,23,0.0,1.0,47,0.00,,,0.00,WUHU216HW,2013-09-07 10:26:00,
2013-09-07 04:31:00,67.1,46.2,29.91,North,0,2.0,2.0,47,0.00,,,0.00,WUHU216HW,2013-09-07 10:31:00,
2013-09-07 04:36:00,67.1,45.6,29.91,NNW,338,1.0,2.0,46,0.00,,,0.00,WUHU216HW,2013-09-07 10:36:00,
2013-09-07 04:41:00,67.1,46.2,29.91,North,0,0.0,1.0,47,0.00,,,0.00,WUHU216HW,2013-09-07 10:41:00,
2013-09-07 04:46:00,67.1,45.6,29.91,North,0,1.0,1.0,46,0.00,,,0.00,WUHU216HW,2013-09-07 10:46:00,
2013-09-07 04:51:00,67.0,45.5,29.91,NNW,338,0.0,1.0,46,0.00,,,0.00,WUHU216HW,2013-09-07 10:51:00,
2013-09-07 04:56:00,66.8,47.1,29.91,ENE,68,1.0,1.0,49,0.00,,,0.00,WUHU216HW,2013-09-07 10:56:00,
2013-09-07 05:01:00,66.6,46.3,29.91,ENE,68,1.0,1.0,48,0.00,,,0.00,WUHU216HW,2013-09-07 11:01:00,
2013-09-07 05:06:00,66.6,46.3,29.91,WNW,293,0.0,1.0,48,0.00,,,0.00,WUHU216HW,2013-09-07 11:06:00,
2013-09-07 05:11:00,66.2,46.5,29.91,ESE,113,1.0,1.0,49,0.00,,,0.00,WUHU216HW,2013-09-07 11:11:00,
2013-09-07 05:16:00,65.9,46.2,29.91,SE,135,1.0,1.0,49,0.00,,,0.00,WUHU216HW,2013-09-07 11:16:00,
2013-09-07 05:21:00,65.9,46.2,29.91,NNW,338,0.0,1.0,49,0.00,,,0.00,WUHU216HW,2013-09-07 11:21:00,
2013-09-07 05:26:00,65.7,47.1,29.91,SE,135,1.0,1.0,51,0.00,,,0.00,WUHU216HW,2013-09-07 11:26:00,
2013-09-07 05:31:00,65.5,46.4,29.91,ESE,113,0.0,1.0,50,0.00,,,0.00,WUHU216HW,2013-09-07 11:31:00,
2013-09-07 05:36:00,65.3,46.3,29.91,ENE,68,0.0,1.0,50,0.00,,,0.00,WUHU216HW,2013-09-07 11:36:00,
2013-09-07 05:41:00,65.2,46.1,29.91,NE,45,0.0,0.0,50,0.00,,,0.00,WUHU216HW,2013-09-07 11:41:00,
2013-09-07 05:46:00,65.2,47.1,29.91,East,90,1.0,1.0,52,0.00,,,0.00,WUHU216HW,2013-09-07 11:46:00,
2013-09-07 05:51:00,65.0,47.3,29.91,East,90,0.0,1.0,53,0.00,,,0.00,WUHU216HW,2013-09-07 11:51:00,
2013-09-07 05:56:00,65.0,47.3,29.91,SE,135,0.0,1.0,53,0.00,,,0.00,WUHU216HW,2013-09-07 11:56:00,
2013-09-07 06:01:00,64.8,46.7,29.91,NNE,23,0.0,1.0,52,0.00,,,0.00,WUHU216HW,2013-09-07 12:01:00,
2013-09-07 06:06:00,64.8,47.7,29.91,ESE,113,0.0,1.0,54,0.00,,,0.00,WUHU216HW,2013-09-07 12:06:00,
2013-09-07 06:11:00,64.6,47.5,29.91,ENE,68,1.0,1.0,54,0.00,,,0.00,WUHU216HW,2013-09-07 12:11:00,
2013-09-07 06:16:00,64.6,47.5,29.91,East,90,0.0,1.0,54,0.00,,,0.00,WUHU216HW,2013-09-07 12:16:00,
2013-09-07 06:21:00,64.4,47.4,29.91,NNE,23,0.0,0.0,54,0.00,,,0.00,WUHU216HW,2013-09-07 12:21:00,
2013-09-07 06:26:00,64.4,47.8,29.91,WSW,248,0.0,0.0,55,0.00,,,0.00,WUHU216HW,2013-09-07 12:26:00,
2013-09-07 06:31:00,64.4,47.8,29.91,West,270,0.0,1.0,55,0.00,,,0.00,WUHU216HW,2013-09-07 12:31:00,
2013-09-07 06:36:00,64.3,47.6,29.91,West,270,0.0,1.0,55,0.00,,,0.00,WUHU216HW,2013-09-07 12:36:00,
2013-09-07 06:41:00,64.1,47.4,29.91,SW,225,1.0,1.0,55,0.00,,,0.00,WUHU216HW,2013-09-07 12:41:00,
2013-09-07 06:46:00,64.1,47.0,29.91,East,90,0.0,1.0,54,0.00,,,0.00,WUHU216HW,2013-09-07 12:46:00,
2013-09-07 06:51:00,63.9,47.4,29.91,WSW,248,1.0,1.0,55,0.00,,,0.00,WUHU216HW,2013-09-07 12:51:00,
2013-09-07 06:56:00,63.7,46.6,29.92,SW,225,2.0,2.0,54,0.00,,,0.00,WUHU216HW,2013-09-07 12:56:00,
2013-09-07 07:01:00,63.9,46.8,29.92,WNW,293,0.0,2.0,54,0.00,,,0.00,WUHU216HW,2013-09-07 13:01:00,
2013-09-07 07:06:00,63.9,46.4,29.92,WSW,248,0.0,2.0,53,0.00,,,0.00,WUHU216HW,2013-09-07 13:06:00,
2013-09-07 07:11:00,63.9,46.4,29.92,WSW,248,0.0,1.0,53,0.00,,,0.00,WUHU216HW,2013-09-07 13:11:00,
2013-09-07 07:16:00,63.9,46.4,29.92,West,270,1.0,1.0,53,0.00,,,0.00,WUHU216HW,2013-09-07 13:16:00,
2013-09-07 07:21:00,64.1,46.5,29.92,NW,315,1.0,1.0,53,0.00,,,0.00,WUHU216HW,2013-09-07 13:21:00,
2013-09-07 07:26:00,64.3,46.6,29.93,WSW,248,1.0,2.0,53,0.00,,,0.00,WUHU216HW,2013-09-07 13:26:00,
2013-09-07 07:31:00,64.4,46.8,29.93,WNW,293,2.0,2.0,53,0.00,,,0.00,WUHU216HW,2013-09-07 13:31:00,
2013-09-07 07:36:00,65.3,47.7,29.93,NW,315,1.0,2.0,53,0.00,,,0.00,WUHU216HW,2013-09-07 13:36:00,
2013-09-07 07:41:00,67.3,49.6,29.93,NNW,338,2.0,2.0,53,0.00,,,0.00,WUHU216HW,2013-09-07 13:41:00,
2013-09-07 07:46:00,70.9,51.4,29.93,ENE,68,1.0,2.0,50,0.00,,,0.00,WUHU216HW,2013-09-07 13:46:00,
2013-09-07 07:51:00,73.4,51.8,29.93,NW,315,1.0,2.0,47,0.00,,,0.00,WUHU216HW,2013-09-07 13:51:00,
2013-09-07 07:56:00,76.0,53.0,29.92,NNW,338,2.0,3.0,45,0.00,,,0.00,WUHU216HW,2013-09-07 13:56:00,
2013-09-07 08:01:00,77.9,53.0,29.92,North,0,0.0,3.0,42,0.00,,,0.00,WUHU216HW,2013-09-07 14:01:00,
2013-09-07 08:06:00,79.7,54.0,29.92,NW,315,1.0,2.0,41,0.00,,,0.00,WUHU216HW,2013-09-07 14:06:00,
2013-09-07 08:11:00,81.4,54.1,29.92,NW,315,2.0,2.0,39,0.00,,,0.00,WUHU216HW,2013-09-07 14:11:00,
2013-09-07 08:16:00,82.8,54.5,29.93,NW,315,2.0,2.0,38,0.00,,,0.00,WUHU216HW,2013-09-07 14:16:00,
2013-09-07 08:21:00,83.9,53.9,29.93,West,270,3.0,3.0,36,0.00,,,0.00,WUHU216HW,2013-09-07 14:21:00,
2013-09-07 08:26:00,84.4,53.7,29.92,NW,315,2.0,3.0,35,0.00,,,0.00,WUHU216HW,2013-09-07 14:26:00,
2013-09-07 08:31:00,84.2,52.7,29.92,NW,315,2.0,3.0,34,0.00,,,0.00,WUHU216HW,2013-09-07 14:31:00,
2013-09-07 08:36:00,83.9,52.4,29.92,West,270,2.0,3.0,34,0.00,,,0.00,WUHU216HW,2013-09-07 14:36:00,
2013-09-07 08:41:00,83.5,52.8,29.93,NW,315,1.0,3.0,35,0.00,,,0.00,WUHU216HW,2013-09-07 14:41:00,
2013-09-07 08:46:00,83.2,51.7,29.93,WNW,293,3.0,3.0,34,0.00,,,0.00,WUHU216HW,2013-09-07 14:46:00,
2013-09-07 08:51:00,83.0,52.3,29.93,West,270,1.0,3.0,35,0.00,,,0.00,WUHU216HW,2013-09-07 14:51:00,
2013-09-07 08:56:00,83.0,52.3,29.93,WNW,293,2.0,3.0,35,0.00,,,0.00,WUHU216HW,2013-09-07 14:56:00,
2013-09-07 09:01:00,83.0,51.6,29.93,WNW,293,2.0,3.0,34,0.00,,,0.00,WUHU216HW,2013-09-07 15:01:00,
2013-09-07 09:06:00,83.2,51.7,29.93,NW,315,2.0,3.0,34,0.00,,,0.00,WUHU216HW,2013-09-07 15:06:00,
2013-09-07 09:11:00,83.5,52.0,29.93,WNW,293,1.0,3.0,34,0.00,,,0.00,WUHU216HW,2013-09-07 15:11:00,
2013-09-07 09:16:00,83.7,52.2,29.93,WNW,293,2.0,5.0,34,0.00,,,0.00,WUHU216HW,2013-09-07 15:16:00,
2013-09-07 09:21:00,83.7,52.2,29.94,West,270,3.0,5.0,34,0.00,,,0.00,WUHU216HW,2013-09-07 15:21:00,
2013-09-07 09:26:00,84.1,52.5,29.94,NNW,338,3.0,4.0,34,0.00,,,0.00,WUHU216HW,2013-09-07 15:26:00,
2013-09-07 09:31:00,84.4,52.8,29.94,NW,315,1.0,3.0,34,0.00,,,0.00,WUHU216HW,2013-09-07 15:31:00,
2013-09-07 09:36:00,84.6,53.0,29.94,West,270,1.0,4.0,34,0.00,,,0.00,WUHU216HW,2013-09-07 15:36:00,
2013-09-07 09:41:00,84.8,52.4,29.94,West,270,2.0,4.0,33,0.00,,,0.00,WUHU216HW,2013-09-07 15:41:00,
2013-09-07 09:46:00,84.6,53.0,29.94,WNW,293,3.0,3.0,34,0.00,,,0.00,WUHU216HW,2013-09-07 15:46:00,
2013-09-07 09:51:00,84.8,52.4,29.94,NW,315,3.0,3.0,33,0.00,,,0.00,WUHU216HW,2013-09-07 15:51:00,
2013-09-07 09:56:00,85.5,53.0,29.94,South,180,1.0,3.0,33,0.00,,,0.00,WUHU216HW,2013-09-07 15:56:00,
2013-09-07 10:01:00,86.0,53.5,29.94,ESE,113,2.0,2.0,33,0.00,,,0.00,WUHU216HW,2013-09-07 16:01:00,
2013-09-07 10:06:00,85.5,53.0,29.94,NNW,338,1.0,3.0,33,0.00,,,0.00,WUHU216HW,2013-09-07 16:06:00,
2013-09-07 10:11:00,86.0,53.5,29.94,West,270,3.0,3.0,33,0.00,,,0.00,WUHU216HW,2013-09-07 16:11:00,
2013-09-07 10:16:00,86.6,53.9,29.94,NNW,338,3.0,4.0,33,0.00,,,0.00,WUHU216HW,2013-09-07 16:16:00,
2013-09-07 10:21:00,86.9,53.5,29.94,NW,315,1.0,4.0,32,0.00,,,0.00,WUHU216HW,2013-09-07 16:21:00,
2013-09-07 10:26:00,87.3,53.7,29.94,SE,135,2.0,5.0,32,0.00,,,0.00,WUHU216HW,2013-09-07 16:26:00,
2013-09-07 10:31:00,87.8,54.2,29.94,WSW,248,4.0,5.0,32,0.00,,,0.00,WUHU216HW,2013-09-07 16:31:00,
2013-09-07 10:36:00,88.4,54.6,29.94,SW,225,7.0,7.0,32,0.00,,,0.00,WUHU216HW,2013-09-07 16:36:00,
2013-09-07 10:41:00,88.4,54.6,29.93,SW,225,3.0,7.0,32,0.00,,,0.00,WUHU216HW,2013-09-07 16:41:00,
2013-09-07 10:46:00,88.9,55.2,29.93,SW,225,3.0,5.0,32,0.00,,,0.00,WUHU216HW,2013-09-07 16:46:00,
2013-09-07 10:51:00,88.9,55.2,29.93,SSW,203,3.0,6.0,32,0.00,,,0.00,WUHU216HW,2013-09-07 16:51:00,
2013-09-07 10:56:00,89.3,55.4,29.93,SW,225,3.0,6.0,32,0.00,,,0.00,WUHU216HW,2013-09-07 16:56:00,
2013-09-07 11:01:00,89.6,54.2,29.93,SSW,203,4.0,7.0,30,0.00,,,0.00,WUHU216HW,2013-09-07 17:01:00,
2013-09-07 11:06:00,90.0,55.3,29.92,SSE,158,1.0,7.0,31,0.00,,,0.00,WUHU216HW,2013-09-07 17:06:00,
2013-09-07 11:11:00,90.4,55.6,29.92,ESE,113,2.0,4.0,31,0.00,,,0.00,WUHU216HW,2013-09-07 17:11:00,
2013-09-07 11:16:00,90.2,55.4,29.92,SSW,203,4.0,4.0,31,0.00,,,0.00,WUHU216HW,2013-09-07 17:16:00,
2013-09-07 11:21:00,90.4,55.6,29.92,SSW,203,3.0,4.0,31,0.00,,,0.00,WUHU216HW,2013-09-07 17:21:00,
2013-09-07 11:26:00,90.5,55.8,29.92,WSW,248,3.0,5.0,31,0.00,,,0.00,WUHU216HW,2013-09-07 17:26:00,
2013-09-07 11:31:00,90.9,56.1,29.92,SSE,158,2.0,6.0,31,0.00,,,0.00,WUHU216HW,2013-09-07 17:31:00,
2013-09-07 11:36:00,91.6,56.0,29.92,ESE,113,3.0,7.0,30,0.00,,,0.00,WUHU216HW,2013-09-07 17:36:00,
2013-09-07 11:41:00,91.4,55.8,29.92,SW,225,4.0,7.0,30,0.00,,,0.00,WUHU216HW,2013-09-07 17:41:00,
2013-09-07 11:46:00,91.6,56.0,29.91,SE,135,4.0,5.0,30,0.00,,,0.00,WUHU216HW,2013-09-07 17:46:00,
2013-09-07 11:51:00,91.8,56.1,29.91,ESE,113,3.0,4.0,30,0.00,,,0.00,WUHU216HW,2013-09-07 17:51:00,
2013-09-07 11:56:00,91.1,55.4,29.91,ESE,113,3.0,4.0,30,0.00,,,0.00,WUHU216HW,2013-09-07 17:56:00,
2013-09-07 12:01:00,91.4,55.8,29.91,SSE,158,2.0,3.0,30,0.00,,,0.00,WUHU216HW,2013-09-07 18:01:00,
2013-09-07 12:06:00,91.4,55.8,29.90,SSW,203,3.0,3.0,30,0.00,,,0.00,WUHU216HW,2013-09-07 18:06:00,
2013-09-07 12:11:00,91.3,55.6,29.90,SE,135,1.0,5.0,30,0.00,,,0.00,WUHU216HW,2013-09-07 18:11:00,
2013-09-07 12:16:00,91.8,55.0,29.90,South,180,3.0,5.0,29,0.00,,,0.00,WUHU216HW,2013-09-07 18:16:00,
2013-09-07 12:21:00,92.9,55.9,29.89,SSE,158,3.0,4.0,29,0.00,,,0.00,WUHU216HW,2013-09-07 18:21:00,
2013-09-07 12:26:00,93.8,54.5,29.89,SE,135,2.0,7.0,27,0.00,,,0.00,WUHU216HW,2013-09-07 18:26:00,
2013-09-07 12:31:00,94.0,54.5,29.89,SSE,158,1.0,7.0,27,0.00,,,0.00,WUHU216HW,2013-09-07 18:31:00,
2013-09-07 12:36:00,94.1,54.7,29.89,SE,135,5.0,5.0,27,0.00,,,0.00,WUHU216HW,2013-09-07 18:36:00,
2013-09-07 12:41:00,94.1,53.7,29.89,SE,135,2.0,5.0,26,0.00,,,0.00,WUHU216HW,2013-09-07 18:41:00,
2013-09-07 12:46:00,94.1,53.7,29.89,SSW,203,4.0,5.0,26,0.00,,,0.00,WUHU216HW,2013-09-07 18:46:00,
2013-09-07 12:51:00,94.9,54.3,29.89,SW,225,3.0,5.0,26,0.00,,,0.00,WUHU216HW,2013-09-07 18:51:00,
2013-09-07 12:56:00,95.0,53.3,29.88,WSW,248,2.0,5.0,25,0.00,,,0.00,WUHU216HW,2013-09-07 18:56:00,
2013-09-07 13:01:00,95.6,53.7,29.88,SE,135,1.0,5.0,25,0.00,,,0.00,WUHU216HW,2013-09-07 19:01:00,
2013-09-07 13:06:00,95.9,54.0,29.88,SW,225,3.0,5.0,25,0.00,,,0.00,WUHU216HW,2013-09-07 19:06:00,
2013-09-07 13:11:00,96.3,53.3,29.88,SW,225,6.0,6.0,24,0.00,,,0.00,WUHU216HW,2013-09-07 19:11:00,
2013-09-07 13:16:00,95.6,52.7,29.87,West,270,2.0,6.0,24,0.00,,,0.00,WUHU216HW,2013-09-07 19:16:00,
2013-09-07 13:21:00,95.8,52.7,29.87,WSW,248,2.0,4.0,24,0.00,,,0.00,WUHU216HW,2013-09-07 19:21:00,
2013-09-07 13:26:00,96.1,54.2,29.87,South,180,4.0,4.0,25,0.00,,,0.00,WUHU216HW,2013-09-07 19:26:00,
2013-09-07 13:31:00,96.3,53.3,29.87,SSW,203,4.0,4.0,24,0.00,,,0.00,WUHU216HW,2013-09-07 19:31:00,
2013-09-07 13:36:00,96.3,53.3,29.86,SSW,203,1.0,4.0,24,0.00,,,0.00,WUHU216HW,2013-09-07 19:36:00,
2013-09-07 13:41:00,96.1,53.1,29.86,SSW,203,2.0,4.0,24,0.00,,,0.00,WUHU216HW,2013-09-07 19:41:00,
2013-09-07 13:46:00,96.3,53.3,29.86,East,90,3.0,5.0,24,0.00,,,0.00,WUHU216HW,2013-09-07 19:46:00,
2013-09-07 13:51:00,94.7,51.8,29.86,SE,135,1.0,5.0,24,0.00,,,0.00,WUHU216HW,2013-09-07 19:51:00,
2013-09-07 13:56:00,94.3,52.7,29.86,NNW,338,1.0,5.0,25,0.00,,,0.00,WUHU216HW,2013-09-07 19:56:00,
2013-09-07 14:01:00,95.2,53.5,29.86,West,270,2.0,6.0,25,0.00,,,0.00,WUHU216HW,2013-09-07 20:01:00,
2013-09-07 14:06:00,96.5,53.4,29.85,SE,135,3.0,6.0,24,0.00,,,0.00,WUHU216HW,2013-09-07 20:06:00,
2013-09-07 14:10:00,97.2,54.0,29.85,WSW,248,5.0,5.0,24,0.00,,,0.00,WUHU216HW,2013-09-07 20:10:00,
2013-09-07 14:15:00,97.9,54.6,29.85,WSW,248,3.0,6.0,24,0.00,,,0.00,WUHU216HW,2013-09-07 20:15:00,
2013-09-07 14:20:00,97.9,54.6,29.84,WSW,248,4.0,6.0,24,0.00,,,0.00,WUHU216HW,2013-09-07 20:20:00,
2013-09-07 14:25:00,97.9,53.6,29.84,East,90,2.0,6.0,23,0.00,,,0.00,WUHU216HW,2013-09-07 20:25:00,
2013-09-07 14:30:00,97.9,53.6,29.84,South,180,3.0,6.0,23,0.00,,,0.00,WUHU216HW,2013-09-07 20:30:00,
2013-09-07 14:35:00,98.5,54.0,29.83,SW,225,5.0,6.0,23,0.00,,,0.00,WUHU216HW,2013-09-07 20:35:00,
2013-09-07 14:40:00,98.6,54.1,29.84,SW,225,3.0,6.0,23,0.00,,,0.00,WUHU216HW,2013-09-07 20:40:00,
2013-09-07 14:45:00,99.0,53.3,29.83,SW,225,5.0,5.0,22,0.00,,,0.00,WUHU216HW,2013-09-07 20:45:00,
2013-09-07 14:50:00,98.1,53.6,29.83,West,270,5.0,5.0,23,0.00,,,0.00,WUHU216HW,2013-09-07 20:50:00,
2013-09-07 14:55:00,97.0,52.7,29.83,West,270,3.0,8.0,23,0.00,,,0.00,WUHU216HW,2013-09-07 20:55:00,
2013-09-07 15:01:00,96.5,53.4,29.83,WSW,248,2.0,8.0,24,0.00,,,0.00,WUHU216HW,2013-09-07 21:01:00,
2013-09-07 15:06:00,96.3,53.3,29.82,SSE,158,0.0,4.0,24,0.00,,,0.00,WUHU216HW,2013-09-07 21:06:00,
2013-09-07 15:11:00,95.6,52.7,29.82,East,90,4.0,4.0,24,0.00,,,0.00,WUHU216HW,2013-09-07 21:11:00,
2013-09-07 15:16:00,94.3,52.7,29.83,East,90,10.0,10.0,25,0.00,,,0.00,WUHU216HW,2013-09-07 21:16:00,
2013-09-07 15:20:00,89.1,56.1,29.83,NNE,23,5.0,23.0,33,0.00,,,0.00,WUHU216HW,2013-09-07 21:20:00,
2013-09-07 15:26:00,85.5,57.8,29.82,East,90,6.0,23.0,39,0.03,,,0.03,WUHU216HW,2013-09-07 21:26:00,
2013-09-07 15:31:00,83.5,58.1,29.82,SW,225,0.0,11.0,42,0.06,,,0.06,WUHU216HW,2013-09-07 21:31:00,
2013-09-07 15:35:00,83.9,60.2,29.82,NNW,338,0.0,5.0,45,0.06,,,0.06,WUHU216HW,2013-09-07 21:35:00,
2013-09-07 15:41:00,84.8,61.7,29.81,NW,315,0.0,1.0,46,0.06,,,0.06,WUHU216HW,2013-09-07 21:41:00,
2013-09-07 15:46:00,85.5,62.4,29.81,SSW,203,0.0,2.0,46,0.06,,,0.06,WUHU216HW,2013-09-07 21:46:00,
2013-09-07 15:51:00,85.9,60.1,29.82,SE,135,1.0,2.0,42,0.06,,,0.06,WUHU216HW,2013-09-07 21:51:00,
2013-09-07 15:56:00,86.0,61.6,29.82,SE,135,1.0,2.0,44,0.06,,,0.06,WUHU216HW,2013-09-07 21:56:00,
2013-09-07 16:01:00,85.9,60.1,29.82,SE,135,9.0,9.0,42,0.06,,,0.06,WUHU216HW,2013-09-07 22:01:00,
2013-09-07 16:06:00,84.1,60.4,29.82,South,180,5.0,9.0,45,0.06,,,0.06,WUHU216HW,2013-09-07 22:06:00,
2013-09-07 16:11:00,82.4,59.5,29.82,WSW,248,6.0,9.0,46,0.06,,,0.06,WUHU216HW,2013-09-07 22:11:00,
2013-09-07 16:16:00,81.5,59.9,29.82,SE,135,5.0,9.0,48,0.06,,,0.06,WUHU216HW,2013-09-07 22:16:00,
2013-09-07 16:21:00,81.0,59.4,29.82,SW,225,5.0,9.0,48,0.06,,,0.07,WUHU216HW,2013-09-07 22:21:00,
2013-09-07 16:26:00,80.6,59.0,29.82,SW,225,3.0,9.0,48,0.01,,,0.07,WUHU216HW,2013-09-07 22:26:00,
2013-09-07 16:31:00,80.6,58.5,29.82,SSE,158,1.0,4.0,47,0.01,,,0.07,WUHU216HW,2013-09-07 22:31:00,
2013-09-07 16:35:00,80.8,59.2,29.82,SSW,203,1.0,3.0,48,0.01,,,0.07,WUHU216HW,2013-09-07 22:35:00,
2013-09-07 16:40:00,80.8,58.6,29.82,East,90,0.0,2.0,47,0.01,,,0.07,WUHU216HW,2013-09-07 22:40:00,
2013-09-07 16:45:00,81.0,58.1,29.81,East,90,0.0,1.0,46,0.01,,,0.07,WUHU216HW,2013-09-07 22:45:00,
2013-09-07 16:50:00,81.0,58.8,29.81,ESE,113,1.0,2.0,47,0.01,,,0.07,WUHU216HW,2013-09-07 22:50:00,
2013-09-07 16:55:00,81.4,59.1,29.81,East,90,0.0,2.0,47,0.01,,,0.07,WUHU216HW,2013-09-07 22:55:00,
2013-09-07 17:00:00,81.9,59.6,29.81,SE,135,1.0,1.0,47,0.01,,,0.07,WUHU216HW,2013-09-07 23:00:00,
2013-09-07 17:05:00,82.8,59.9,29.81,ESE,113,0.0,2.0,46,0.01,,,0.07,WUHU216HW,2013-09-07 23:05:00,
2013-09-07 17:10:00,83.9,59.0,29.81,SE,135,1.0,2.0,43,0.01,,,0.07,WUHU216HW,2013-09-07 23:10:00,
2013-09-07 17:15:00,84.4,57.6,29.81,ESE,113,4.0,4.0,40,0.01,,,0.07,WUHU216HW,2013-09-07 23:15:00,
2013-09-07 17:20:00,85.3,56.8,29.81,SE,135,3.0,4.0,38,0.00,,,0.07,WUHU216HW,2013-09-07 23:20:00,
2013-09-07 17:25:00,86.0,57.4,29.81,SW,225,1.0,3.0,38,0.00,,,0.07,WUHU216HW,2013-09-07 23:25:00,
2013-09-07 17:30:00,86.9,58.2,29.81,SSE,158,2.0,2.0,38,0.00,,,0.07,WUHU216HW,2013-09-07 23:30:00,
2013-09-07 17:35:00,86.9,55.1,29.81,South,180,0.0,3.0,34,0.00,,,0.07,WUHU216HW,2013-09-07 23:35:00,
2013-09-07 17:40:00,86.6,56.4,29.81,SW,225,2.0,3.0,36,0.00,,,0.07,WUHU216HW,2013-09-07 23:40:00,
2013-09-07 17:45:00,86.0,55.1,29.81,SSE,158,2.0,5.0,35,0.00,,,0.07,WUHU216HW,2013-09-07 23:45:00,
2013-09-07 17:50:00,85.9,54.9,29.81,SE,135,1.0,5.0,35,0.00,,,0.07,WUHU216HW,2013-09-07 23:50:00,
2013-09-07 17:55:00,85.5,55.4,29.81,SE,135,1.0,3.0,36,0.00,,,0.07,WUHU216HW,2013-09-07 23:55:00,
2013-09-07 18:00:00,85.1,55.1,29.81,ESE,113,1.0,3.0,36,0.00,,,0.07,WUHU216HW,2013-09-08 00:00:00,
2013-09-07 18:05:00,84.8,55.5,29.81,ESE,113,2.0,3.0,37,0.00,,,0.07,WUHU216HW,2013-09-08 00:05:00,
2013-09-07 18:10:00,84.6,55.4,29.81,SE,135,1.0,3.0,37,0.00,,,0.07,WUHU216HW,2013-09-08 00:10:00,
2013-09-07 18:15:00,84.4,55.2,29.80,ESE,113,0.0,2.0,37,0.00,,,0.07,WUHU216HW,2013-09-08 00:15:00,
2013-09-07 18:20:00,84.2,55.1,29.80,SSE,158,1.0,4.0,37,0.00,,,0.07,WUHU216HW,2013-09-08 00:20:00,
2013-09-07 18:25:00,84.2,55.1,29.80,East,90,3.0,4.0,37,0.00,,,0.07,WUHU216HW,2013-09-08 00:25:00,
2013-09-07 18:30:00,84.2,55.1,29.80,ESE,113,1.0,3.0,37,0.00,,,0.07,WUHU216HW,2013-09-08 00:30:00,
2013-09-07 18:35:00,84.2,55.1,29.80,ENE,68,3.0,4.0,37,0.00,,,0.07,WUHU216HW,2013-09-08 00:35:00,
2013-09-07 18:40:00,84.2,53.5,29.80,ENE,68,3.0,4.0,35,0.00,,,0.07,WUHU216HW,2013-09-08 00:40:00,
2013-09-07 18:45:00,84.2,54.3,29.80,ESE,113,1.0,3.0,36,0.00,,,0.07,WUHU216HW,2013-09-08 00:45:00,
2013-09-07 18:50:00,83.9,53.9,29.80,ENE,68,3.0,3.0,36,0.00,,,0.07,WUHU216HW,2013-09-08 00:50:00,
2013-09-07 18:55:00,83.5,54.4,29.80,ESE,113,0.0,3.0,37,0.00,,,0.07,WUHU216HW,2013-09-08 00:55:00,
2013-09-07 19:00:00,83.2,54.1,29.80,ESE,113,0.0,3.0,37,0.00,,,0.07,WUHU216HW,2013-09-08 01:00:00,
2013-09-07 19:05:00,83.0,53.9,29.80,NE,45,0.0,0.0,37,0.00,,,0.07,WUHU216HW,2013-09-08 01:05:00,
2013-09-07 19:10:00,82.8,54.5,29.80,WNW,293,0.0,0.0,38,0.00,,,0.07,WUHU216HW,2013-09-08 01:10:00,
2013-09-07 19:15:00,82.1,54.7,29.80,NNW,338,0.0,0.0,39,0.00,,,0.07,WUHU216HW,2013-09-08 01:15:00,
2013-09-07 19:20:00,81.4,54.8,29.80,NW,315,0.0,0.0,40,0.00,,,0.07,WUHU216HW,2013-09-08 01:20:00,
2013-09-07 19:25:00,80.6,55.5,29.80,South,180,0.0,0.0,42,0.00,,,0.07,WUHU216HW,2013-09-08 01:25:00,
2013-09-07 19:30:00,80.1,54.9,29.80,ENE,68,0.0,0.0,42,0.00,,,0.07,WUHU216HW,2013-09-08 01:30:00,
2013-09-07 19:35:00,79.9,56.0,29.80,East,90,0.0,0.0,44,0.00,,,0.07,WUHU216HW,2013-09-08 01:35:00,
2013-09-07 19:40:00,79.6,56.3,29.80,ENE,68,1.0,1.0,45,0.00,,,0.07,WUHU216HW,2013-09-08 01:40:00,
2013-09-07 19:45:00,79.2,56.0,29.81,East,90,0.0,1.0,45,0.00,,,0.07,WUHU216HW,2013-09-08 01:45:00,
2013-09-07 19:50:00,78.8,56.9,29.81,ESE,113,0.0,1.0,47,0.00,,,0.07,WUHU216HW,2013-09-08 01:50:00,
2013-09-07 19:55:00,78.5,56.5,29.81,ESE,113,1.0,1.0,47,0.00,,,0.07,WUHU216HW,2013-09-08 01:55:00,
2013-09-07 20:00:00,78.1,56.2,29.81,ENE,68,2.0,2.0,47,0.00,,,0.07,WUHU216HW,2013-09-08 02:00:00,
2013-09-07 20:05:00,77.9,56.6,29.81,East,90,1.0,2.0,48,0.00,,,0.07,WUHU216HW,2013-09-08 02:05:00,
2013-09-07 20:10:00,77.8,56.5,29.81,ENE,68,1.0,2.0,48,0.00,,,0.07,WUHU216HW,2013-09-08 02:10:00,
2013-09-07 20:15:00,77.4,56.2,29.81,ENE,68,2.0,2.0,48,0.00,,,0.07,WUHU216HW,2013-09-08 02:15:00,
2013-09-07 20:20:00,77.4,56.8,29.81,ENE,68,1.0,2.0,49,0.00,,,0.07,WUHU216HW,2013-09-08 02:20:00,
2013-09-07 20:25:00,77.0,56.4,29.81,ESE,113,1.0,2.0,49,0.00,,,0.07,WUHU216HW,2013-09-08 02:25:00,
2013-09-07 20:30:00,76.9,56.3,29.82,ENE,68,0.0,1.0,49,0.00,,,0.07,WUHU216HW,2013-09-08 02:30:00,
2013-09-07 20:35:00,76.5,56.6,29.82,ENE,68,1.0,1.0,50,0.00,,,0.07,WUHU216HW,2013-09-08 02:35:00,
2013-09-07 20:40:00,76.3,56.4,29.82,East,90,2.0,2.0,50,0.00,,,0.07,WUHU216HW,2013-09-08 02:40:00,
2013-09-07 20:45:00,76.1,56.3,29.83,East,90,1.0,2.0,50,0.00,,,0.07,WUHU216HW,2013-09-08 02:45:00,
2013-09-07 20:50:00,76.0,56.1,29.83,NW,315,0.0,2.0,50,0.00,,,0.07,WUHU216HW,2013-09-08 02:50:00,
2013-09-07 20:55:00,76.0,56.1,29.83,West,270,1.0,2.0,50,0.00,,,0.07,WUHU216HW,2013-09-08 02:55:00,
2013-09-07 21:00:00,76.0,56.1,29.83,NW,315,1.0,1.0,50,0.00,,,0.07,WUHU216HW,2013-09-08 03:00:00,
2013-09-07 21:05:00,76.0,55.4,29.83,NNW,338,0.0,1.0,49,0.00,,,0.07,WUHU216HW,2013-09-08 03:05:00,
2013-09-07 21:10:00,75.8,55.9,29.83,WSW,248,0.0,1.0,50,0.00,,,0.07,WUHU216HW,2013-09-08 03:10:00,
2013-09-07 21:15:00,75.6,55.8,29.84,WSW,248,0.0,0.0,50,0.00,,,0.07,WUHU216HW,2013-09-08 03:15:00,
2013-09-07 21:20:00,75.4,56.6,29.84,SE,135,1.0,2.0,52,0.00,,,0.07,WUHU216HW,2013-09-08 03:20:00,
2013-09-07 21:25:00,75.2,56.0,29.84,East,90,1.0,2.0,51,0.00,,,0.07,WUHU216HW,2013-09-08 03:25:00,
2013-09-07 21:30:00,75.1,55.8,29.84,ESE,113,0.0,1.0,51,0.00,,,0.07,WUHU216HW,2013-09-08 03:30:00,
2013-09-07 21:35:00,74.9,56.1,29.85,East,90,1.0,2.0,52,0.00,,,0.07,WUHU216HW,2013-09-08 03:35:00,
2013-09-07 21:40:00,74.7,55.5,29.85,NNE,23,0.0,2.0,51,0.00,,,0.07,WUHU216HW,2013-09-08 03:40:00,
2013-09-07 21:45:00,74.5,55.7,29.85,SSE,158,0.0,1.0,52,0.00,,,0.07,WUHU216HW,2013-09-08 03:45:00,
2013-09-07 21:50:00,74.3,56.1,29.85,South,180,1.0,1.0,53,0.00,,,0.07,WUHU216HW,2013-09-08 03:50:00,
2013-09-07 21:55:00,74.0,54.7,29.85,ENE,68,0.0,1.0,51,0.00,,,0.07,WUHU216HW,2013-09-08 03:55:00,
2013-09-07 22:00:00,74.0,54.7,29.85,North,0,0.0,1.0,51,0.00,,,0.07,WUHU216HW,2013-09-08 04:00:00,
2013-09-07 22:01:00,74.0,54.7,29.85,North,0,0.0,1.0,51,0.00,,,0.07,WUHU216HW,2013-09-08 04:01:00,
2013-09-07 22:02:00,73.8,54.6,29.85,ENE,68,0.0,1.0,51,0.00,,,0.07,WUHU216HW,2013-09-08 04:02:00,
2013-09-07 22:07:00,73.8,54.6,29.85,ENE,68,0.0,1.0,51,0.00,,,0.07,WUHU216HW,2013-09-08 04:07:00,
2013-09-07 22:12:00,73.8,54.6,29.86,ENE,68,0.0,1.0,51,0.00,,,0.07,WUHU216HW,2013-09-08 04:12:00,
2013-09-07 22:17:00,73.4,54.2,29.86,ENE,68,1.0,1.0,51,0.00,,,0.07,WUHU216HW,2013-09-08 04:17:00,
2013-09-07 22:22:00,73.1,54.8,29.86,ENE,68,0.0,1.0,53,0.00,,,0.07,WUHU216HW,2013-09-08 04:22:00,
2013-09-07 22:27:00,73.1,52.1,29.86,East,90,1.0,1.0,48,0.00,,,0.07,WUHU216HW,2013-09-08 04:27:00,
2013-09-07 22:32:00,73.4,51.3,29.86,ESE,113,3.0,3.0,46,0.00,,,0.07,WUHU216HW,2013-09-08 04:32:00,
2013-09-07 22:37:00,73.8,50.4,29.86,ESE,113,0.0,3.0,44,0.00,,,0.07,WUHU216HW,2013-09-08 04:37:00,
2013-09-07 22:42:00,74.2,49.6,29.86,SE,135,1.0,3.0,42,0.00,,,0.07,WUHU216HW,2013-09-08 04:42:00,
2013-09-07 22:47:00,74.2,49.6,29.86,NE,45,0.0,3.0,42,0.00,,,0.07,WUHU216HW,2013-09-08 04:47:00,
2013-09-07 22:52:00,74.2,49.6,29.86,WSW,248,0.0,1.0,42,0.00,,,0.07,WUHU216HW,2013-09-08 04:52:00,
2013-09-07 22:57:00,73.8,49.2,29.86,NNW,338,0.0,0.0,42,0.00,,,0.07,WUHU216HW,2013-09-08 04:57:00,
2013-09-07 23:02:00,73.4,49.5,29.86,SSW,203,0.0,0.0,43,0.00,,,0.07,WUHU216HW,2013-09-08 05:02:00,
2013-09-07 23:07:00,72.9,49.6,29.86,ESE,113,0.0,0.0,44,0.00,,,0.07,WUHU216HW,2013-09-08 05:07:00,
2013-09-07 23:12:00,72.7,49.4,29.86,SW,225,0.0,0.0,44,0.00,,,0.07,WUHU216HW,2013-09-08 05:12:00,
2013-09-07 23:17:00,72.5,49.2,29.86,SW,225,1.0,1.0,44,0.00,,,0.07,WUHU216HW,2013-09-08 05:17:00,
2013-09-07 23:22:00,72.4,49.2,29.87,East,90,0.0,3.0,44,0.00,,,0.07,WUHU216HW,2013-09-08 05:22:00,
2013-09-07 23:27:00,72.4,49.2,29.86,SSW,203,0.0,3.0,44,0.00,,,0.07,WUHU216HW,2013-09-08 05:27:00,
2013-09-07 23:32:00,72.4,49.2,29.86,SE,135,0.0,1.0,44,0.00,,,0.07,WUHU216HW,2013-09-08 05:32:00,
2013-09-07 23:37:00,72.4,48.5,29.87,SE,135,0.0,0.0,43,0.00,,,0.07,WUHU216HW,2013-09-08 05:37:00,
2013-09-07 23:42:00,72.4,48.5,29.86,ESE,113,0.0,0.0,43,0.00,,,0.07,WUHU216HW,2013-09-08 05:42:00,
2013-09-07 23:47:00,72.4,48.5,29.86,SE,135,0.0,1.0,43,0.00,,,0.07,WUHU216HW,2013-09-08 05:47:00,
2013-09-07 23:52:00,72.4,48.5,29.86,SE,135,1.0,1.0,43,0.00,,,0.07,WUHU216HW,2013-09-08 05:52:00,
2013-09-07 23:57:00,72.5,48.7,29.86,ESE,113,2.0,2.0,43,0.00,,,0.07,WUHU216HW,2013-09-08 05:57:00,